Regional Weather Roundup
Issued by NWS Boston, MA

Current Version | Previous Version | Text Only | Print | Product List | Glossary Off
Versions: 1 2 3 4 5 6 7 8 9 10 11 12 13 14 15 16 17 18 19 20 21 22 23 24 25 26 27
000 ASUS41 KBOX 310310 RWRBOX REGIONAL WEATHER ROUNDUP NATIONAL WEATHER SERVICE TAUNTON MA 1100 PM EDT SAT JUL 30 2016 NOTE: "FAIR" INDICATES FEW OR NO CLOUDS BELOW 12,000 FEET WITH NO SIGNIFICANT WEATHER AND/OR OBSTRUCTIONS TO VISIBILITY. MAZALL-310400- EASTERN MASSACHUSETTS CITY SKY/WX TMP DP RH WIND PRES REMARKS BOSTON CLOUDY 71 69 93 E6 30.06S BEVERLY CLOUDY 71 66 84 SE7 30.06S LAWRENCE CLOUDY 73 62 68 CALM 30.08F BEDFORD CLOUDY 72 64 76 E5 30.05S BLUE HILL N/A 71 69 93 S7 30.07S NORWOOD CLOUDY 73 70 90 CALM 30.05S MARSHFIELD CLOUDY 73 70 88 SW6G13 30.06S PLYMOUTH CLOUDY 72 69 90 S6 30.08S TAUNTON LGT RAIN 73 69 87 CALM 30.06F NEW BEDFORD CLOUDY 73 70 90 S6 30.06F $$ MAZALL-310400- CAPE COD AND THE ISLANDS CITY SKY/WX TMP DP RH WIND PRES REMARKS FALMOUTH CLOUDY 70 68 94 SW6 30.09S HYANNIS CLOUDY 71 68 90 SW7 30.07F CHATHAM CLOUDY 70 68 93 VRB5 30.10S PROVINCETOWN CLOUDY 72 70 93 S8 30.08F NANTUCKET FOG 66 65 96 S3 30.08F VSB 1/2 MARTHAS VNYRD CLOUDY 69 68 96 S3 30.08F $$ MAZALL-310400- CENTRAL AND WESTERN MASSACHUSETTS CITY SKY/WX TMP DP RH WIND PRES REMARKS WORCESTER MOCLDY 69 66 90 W10 30.09F FITCHBURG CLOUDY 76 64 66 W5 30.07F ORANGE MOCLDY 71 68 90 SE3 30.08F SPRINGFIELD CLOUDY 71 69 96 CALM 30.05F WESTFIELD CLOUDY 69 67 93 CALM 30.06F NORTH ADAMS CLOUDY 66 64 93 CALM 30.09F PITTSFIELD LGT RAIN 66 64 93 CALM 30.09F $$ RIZALL-310400- RHODE ISLAND CITY SKY/WX TMP DP RH WIND PRES REMARKS PROVIDENCE DRIZZLE 74 70 87 S8 30.07F NEWPORT CLOUDY 73 70 90 S6 30.07F BLOCK ISLAND CLOUDY 74 71 91 S7 30.08F SMITHFIELD CLOUDY 72 68 88 S3 30.08S WESTERLY CLOUDY 74 69 85 CALM 30.07F $$ CTZALL-310400- CONNECTICUT CITY SKY/WX TMP DP RH WIND PRES REMARKS BRADLEY INTL CLOUDY 72 69 90 SE3 30.06F HARTFORD CLOUDY 74 71 91 CALM 30.05F BRIDGEPORT LGT RAIN 76 73 91 S3 30.05S DANBURY LGT RAIN 72 70 93 CALM 30.07F GROTON CLOUDY 74 71 91 CALM 30.06F NEW HAVEN MOCLDY 75 73 93 CALM 30.06F CHESTER CLOUDY 73 72 94 CALM 30.07F FOG MERIDEN CLOUDY 74 70 87 N3 30.06F WILLIMANTIC MOCLDY 74 72 93 CALM 30.07F OXFORD N/A 72 66 83 CALM 30.10F $$ MEZ002-015-021-024-NHZ003-005-008-011-012-014-VTZ005-008-310400- NORTHERN NEW ENGLAND CITY SKY/WX TMP DP RH WIND PRES REMARKS PORTLAND ME CLOUDY 70 56 61 SW5 30.07S BANGOR ME CLOUDY 69 55 60 CALM 30.07R CONCORD NH CLOUDY 73 57 57 CALM 30.07S MANCHESTER NH CLOUDY 75 57 53 N5 30.05S NASHUA NH CLOUDY 75 60 59 E5 30.06F PORTSMOUTH NH CLOUDY 69 60 71 CALM 30.05S JAFFREY NH CLOUDY 73 63 70 CALM 30.11S KEENE NH LGT RAIN 69 65 86 CALM 30.08S BURLINGTON VT FAIR 67 55 65 N3 30.10F MT. WASHINGTON MOCLDY 48 46 93 SW9 N/A $$ NYZ052-076-310400- EASTERN NEW YORK CITY SKY/WX TMP DP RH WIND PRES REMARKS ALBANY LGT RAIN 69 65 86 S6 30.07S NEW YORK CITY CLOUDY 77 73 87 E10 30.02F $$ ANZALL-310400- MARINE OBSERVATIONS STATION/POSITION TIME TEMP WIND PRES VSBY WAVE AIR SEA DIR/SP/G HT/PER (UTC) (F) (DEG/KT/KT) (MB) (MI) (FT/S) BOSTON BUOY 0250 71 72 110/ 10/ 12 1017.5R 1/ 8 BUZZARDS BAY 0200 72 200/ 9/ 10 1019.0R NANTUCKET SOUND 0250 71 75 230/ 6/ 8 1018.4F 1 MASS BAY-STELLWA 0204 72 70 130/ 10/ 10 1017.7R 1 7/8 2/ 7 ISLE OF SHOALS 0200 71 160/ 7/ 7 1018.1R S OF BLOCK IS 0225 73 N/A 2/ 7 $$ ......................KEY......................... SKY/WX - SKY CONDITION/PRESENT WEATHER TMP - TEMPERATURE IN FAHRENHEIT DWPT - DEWPOINT IN FAHRENHEIT RH - RELATIVE HUMIDITY IN PERCENT WIND - DIRECTION AND SPEED IN MPH PRES - MEAN SEA LEVEL PRESSURE IN INCHES OF HG WCI - WIND CHILL INDEX VSB - VISIBILITY IN MILES HX - HEAT INDEX TC - TEMPERATURE IN CELSIUS VRB - VARIABLE WIND DIRECTION N/A - NOT AVAILABLE

USA.gov is the U.S. government's official web portal to all federal, state and local government web resources and services.